When you browse on this site, cookies collect data to enhance your experience and personalize the content and advertising you see.
Visit our Privacy Policy to learn more. By continuing to use the site, you agree to this use of cookies and data.
  • In Hungary
  • List of Countries
  • For 7 days
  • Water Temperature
  • Satellite Maps
  • Weather Map
  • News
  • Weather Widgets
  • user-avatar
    Login

    Hourly Weather Huánuco

    Today, 20 January, Sunday

    Time Temperature Precipitation Wind Pressure Humidity
    00:00 +15°C° 0.3 mm 1 mps 597 mmHg 82%
    01:00 +15°C° 0.3 mm 1 mps 597 mmHg 80%
    02:00 +14°C° 0.4 mm 1 mps 597 mmHg 80%
    03:00 +14°C° 0.4 mm 1 mps 597 mmHg 80%
    04:00 +14°C° 0.4 mm 1 mps 596 mmHg 79%
    05:00 +15°C° 0.7 mm 1 mps 597 mmHg 75%
    06:00 +16°C° 0.7 mm 1 mps 598 mmHg 71%
    07:00 +18°C° 0.7 mm 1 mps 599 mmHg 67%
    08:00 +18°C° 0.7 mm 2 mps 599 mmHg 64%
    09:00 +19°C° 0.7 mm 2 mps 600 mmHg 61%
    10:00 +21°C° 0.7 mm 2 mps 600 mmHg 58%
    11:00 +21°C° 0.6 mm 3 mps 600 mmHg 58%
    12:00 +22°C° 0.6 mm 3 mps 600 mmHg 58%
    13:00 +22°C° 0.6 mm 3 mps 599 mmHg 57%
    14:00 +22°C° 0.4 mm 3 mps 599 mmHg 59%
    15:00 +22°C° 0.4 mm 3 mps 598 mmHg 60%
    16:00 +22°C° 0.4 mm 3 mps 597 mmHg 61%
    17:00 +20°C° 0.3 mm 2 mps 597 mmHg 70%
    18:00 +19°C° 0.3 mm 2 mps 597 mmHg 78%
    19:00 +18°C° 0.3 mm 1 mps 596 mmHg 86%
    20:00 +18°C° 0.3 mm 1 mps 597 mmHg 86%
    21:00 +16°C° 0.3 mm 1 mps 598 mmHg 86%
    22:00 +15°C° 0.3 mm 0 mps 598 mmHg 87%
    23:00 +15°C° 0.4 mm 0 mps 598 mmHg 86%

    Tomorrow, 21 January, Monday

    Time Temperature Precipitation Wind Pressure Humidity
    00:00 +15°C° 0.4 mm 0 mps 598 mmHg 86%
    01:00 +15°C° 0.4 mm 0 mps 597 mmHg 85%
    02:00 +15°C° 0.6 mm 0 mps 597 mmHg 85%
    03:00 +15°C° 0.6 mm 0 mps 597 mmHg 85%
    04:00 +15°C° 0.6 mm 0 mps 597 mmHg 84%
    05:00 +15°C° 0.6 mm 0 mps 597 mmHg 82%
    06:00 +16°C° 0.6 mm 0 mps 598 mmHg 80%
    07:00 +16°C° 0.6 mm 0 mps 598 mmHg 77%
    08:00 +19°C° 0.6 mm 1 mps 599 mmHg 73%
    09:00 +20°C° 0.6 mm 1 mps 599 mmHg 68%
    10:00 +20°C° 0.6 mm 2 mps 600 mmHg 63%
    11:00 +21°C° 0.6 mm 2 mps 600 mmHg 60%
    12:00 +21°C° 0.6 mm 2 mps 599 mmHg 58%
    13:00 +22°C° 0.6 mm 3 mps 599 mmHg 56%
    14:00 +22°C° 0.4 mm 3 mps 598 mmHg 57%
    15:00 +22°C° 0.4 mm 3 mps 598 mmHg 58%
    16:00 +22°C° 0.4 mm 4 mps 597 mmHg 59%
    17:00 +20°C° 0.4 mm 3 mps 597 mmHg 68%
    18:00 +19°C° 0.4 mm 2 mps 597 mmHg 77%
    19:00 +18°C° 0.4 mm 1 mps 597 mmHg 86%
    20:00 +16°C° 0.5 mm 1 mps 597 mmHg 87%
    21:00 +16°C° 0.5 mm 1 mps 598 mmHg 88%
    22:00 +15°C° 0.5 mm 0 mps 598 mmHg 89%
    23:00 +15°C° 0.9 mm 0 mps 598 mmHg 88%

    Day after tomorrow, 22 January, Tuesday

    Time Temperature Precipitation Wind Pressure Humidity
    00:00 +15°C° 0.9 mm 0 mps 598 mmHg 87%
    01:00 +15°C° 0.9 mm 0 mps 598 mmHg 86%
    02:00 +15°C° 1.5 mm 0 mps 597 mmHg 86%
    03:00 +15°C° 1.5 mm 0 mps 597 mmHg 85%
    04:00 +15°C° 1.5 mm 0 mps 597 mmHg 85%
    05:00 +15°C° 1.9 mm 0 mps 597 mmHg 84%
    06:00 +15°C° 1.9 mm 0 mps 598 mmHg 83%
    07:00 +15°C° 1.9 mm 0 mps 598 mmHg 82%
    08:00 +18°C° 1.8 mm 1 mps 599 mmHg 78%
    09:00 +18°C° 1.8 mm 1 mps 599 mmHg 75%
    10:00 +19°C° 1.8 mm 1 mps 600 mmHg 72%
    11:00 +19°C° 2 mm 1 mps 600 mmHg 71%
    12:00 +19°C° 2 mm 1 mps 599 mmHg 71%
    13:00 +19°C° 2 mm 1 mps 599 mmHg 70%
    14:00 +19°C° 1.2 mm 1 mps 598 mmHg 69%
    15:00 +19°C° 1.2 mm 1 mps 598 mmHg 69%
    16:00 +19°C° 1.2 mm 1 mps 597 mmHg 68%
    17:00 +18°C° 0.4 mm 1 mps 597 mmHg 72%
    18:00 +15°C° 0.4 mm 0 mps 597 mmHg 76%
    19:00 +14°C° 0.4 mm 0 mps 596 mmHg 80%
    20:00 +14°C° 0.4 mm 0 mps 597 mmHg 80%
    21:00 +14°C° 0.4 mm 0 mps 597 mmHg 81%
    22:00 +13°C° 0.4 mm 0 mps 598 mmHg 81%
    23:00 +13°C° 0.7 mm 0 mps 597 mmHg 81%

    23 January, Wednesday

    Time Temperature Precipitation Wind Pressure Humidity
    00:00 +14°C° 0.7 mm 1 mps 597 mmHg 81%
    01:00 +14°C° 0.7 mm 1 mps 597 mmHg 81%
    02:00 +14°C° 0.7 mm 1 mps 597 mmHg 81%
    03:00 +14°C° 0.7 mm 1 mps 596 mmHg 80%
    04:00 +14°C° 0.7 mm 1 mps 596 mmHg 79%
    05:00 +15°C° 0.7 mm 1 mps 597 mmHg 76%
    06:00 +15°C° 0.7 mm 0 mps 598 mmHg 72%
    07:00 +16°C° 0.7 mm 0 mps 599 mmHg 69%
    08:00 +19°C° 0.7 mm 1 mps 600 mmHg 65%
    09:00 +21°C° 0.7 mm 1 mps 600 mmHg 61%
    10:00 +21°C° 0.7 mm 2 mps 601 mmHg 57%
    11:00 +21°C° 0.7 mm 3 mps 600 mmHg 57%
    12:00 +22°C° 0.7 mm 3 mps 600 mmHg 57%
    13:00 +22°C° 0.7 mm 3 mps 599 mmHg 57%
    14:00 +22°C° 0.6 mm 3 mps 599 mmHg 59%
    15:00 +21°C° 0.6 mm 3 mps 598 mmHg 61%
    16:00 +21°C° 0.6 mm 3 mps 597 mmHg 64%
    17:00 +19°C° 0.6 mm 3 mps 597 mmHg 72%
    18:00 +18°C° 0.6 mm 2 mps 597 mmHg 79%
    19:00 +16°C° 0.6 mm 1 mps 596 mmHg 87%
    20:00 +16°C° 0.5 mm 1 mps 597 mmHg 88%
    21:00 +16°C° 0.5 mm 1 mps 597 mmHg 88%
    22:00 +15°C° 0.5 mm 0 mps 598 mmHg 89%
    23:00 +15°C° 0.6 mm 0 mps 598 mmHg 88%

    24 January, Thursday

    Time Temperature Precipitation Wind Pressure Humidity
    00:00 +16°C° 0.6 mm 1 mps 598 mmHg 87%
    01:00 +16°C° 0.6 mm 1 mps 597 mmHg 87%
    02:00 +15°C° 0.5 mm 1 mps 597 mmHg 86%
    03:00 +15°C° 0.5 mm 1 mps 597 mmHg 85%
    04:00 +15°C° 0.5 mm 1 mps 596 mmHg 84%
    05:00 +15°C° 0.6 mm 0 mps 597 mmHg 81%
    06:00 +16°C° 0.6 mm 0 mps 598 mmHg 78%
    07:00 +16°C° 0.6 mm 0 mps 599 mmHg 75%
    08:00 +19°C° 0.6 mm 1 mps 599 mmHg 70%
    09:00 +21°C° 0.6 mm 1 mps 600 mmHg 65%
    10:00 +21°C° 0.6 mm 2 mps 601 mmHg 59%
    11:00 +21°C° 0.6 mm 2 mps 600 mmHg 58%
    12:00 +22°C° 0.6 mm 3 mps 600 mmHg 57%
    13:00 +24°C° 0.6 mm 3 mps 600 mmHg 56%
    14:00 +22°C° 0.5 mm 3 mps 599 mmHg 58%
    15:00 +22°C° 0.5 mm 3 mps 598 mmHg 60%
    16:00 +22°C° 0.5 mm 3 mps 598 mmHg 62%
    17:00 +20°C° 0.3 mm 2 mps 597 mmHg 70%
    18:00 +18°C° 0.3 mm 2 mps 597 mmHg 78%
    19:00 +18°C° 0.3 mm 1 mps 596 mmHg 85%
    20:00 +16°C° 0.3 mm 1 mps 597 mmHg 86%
    21:00 +16°C° 0.3 mm 1 mps 597 mmHg 87%
    22:00 +16°C° 0.3 mm 1 mps 598 mmHg 87%
    23:00 +16°C° 0.5 mm 1 mps 598 mmHg 87%

    25 January, Friday

    Time Temperature Precipitation Wind Pressure Humidity
    00:00 +14°C° 0.5 mm 0 mps 597 mmHg 86%
    01:00 +14°C° 0.5 mm 0 mps 597 mmHg 85%
    02:00 +14°C° 0.6 mm 0 mps 597 mmHg 84%
    03:00 +14°C° 0.6 mm 0 mps 597 mmHg 83%
    04:00 +14°C° 0.6 mm 0 mps 596 mmHg 83%
    05:00 +15°C° 0.7 mm 0 mps 597 mmHg 80%
    06:00 +16°C° 0.7 mm 0 mps 598 mmHg 76%
    07:00 +17°C° 0.7 mm 0 mps 599 mmHg 73%
    08:00 +20°C° 0.8 mm 1 mps 599 mmHg 69%
    09:00 +21°C° 0.8 mm 1 mps 600 mmHg 64%
    10:00 +21°C° 0.8 mm 2 mps 600 mmHg 59%
    11:00 +21°C° 0.5 mm 2 mps 600 mmHg 57%
    12:00 +23°C° 0.5 mm 2 mps 599 mmHg 55%
    13:00 +24°C° 0.5 mm 2 mps 599 mmHg 53%
    14:00 +24°C° 0.3 mm 3 mps 598 mmHg 55%
    15:00 +24°C° 0.3 mm 3 mps 598 mmHg 56%
    16:00 +24°C° 0.3 mm 3 mps 597 mmHg 57%
    17:00 +21°C° 0.3 mm 2 mps 597 mmHg 66%
    18:00 +19°C° 0.3 mm 2 mps 596 mmHg 74%
    19:00 +18°C° 0.3 mm 1 mps 596 mmHg 83%
    20:00 +18°C° 0.2 mm 1 mps 597 mmHg 84%
    21:00 +18°C° 0.2 mm 1 mps 597 mmHg 84%
    22:00 +16°C° 0.2 mm 0 mps 598 mmHg 85%
    23:00 +16°C° 0.3 mm 0 mps 597 mmHg 85%
    Show more